sat.trackr.live / text

‹ back to catalog

MDQUBESAT-2

NORAD 58665 · 2023-185P

PAYLOAD ACTIVE UNKNOWN

§ Identity

Operator
Country
ARGN
Launch date
2023-12-01
Launch site
AFWTR
Launch vehicle
Mass (kg)
RCS (m²)

External: N2YO · Heavens-Above · Gunter

§ Orbital elements

Epoch: 2026-05-24T21:35:49.945632Z

Period
90.42 min
Inclination
97.5278°
Eccentricity
0.0010307
Mean motion
15.92638401 rev/d
Perigee alt
288.0 km
Apogee alt
301.8 km
Semi-major
6,673.0 km
B*
1.7501e-3
RAAN
238.1173°
Arg perigee
261.3121°
Mean anomaly
98.6985°
Rev number
13,425

§ Raw data

MDQUBESAT-21 58665U 23185P   26144.89988363  .00596722  14476-3  17501-2 0  99922 58665  97.5278 238.1173 0010307 261.3121  98.6985 15.92638401134251

JSON: /api/v1/satellites/58665 · /tle

For live sub-satellite position, see the globe view (requires WebGL).

§ Visibility from observer

Set your observer location to see the next 7 days of passes ≥ 10°. The values pass through the URL so the page stays shareable.

No JS? Fill the form by hand. The geolocation button needs JavaScript.

§ Radio — SatNOGS DB

ModeDescriptionDownlinkUplink
LoRa Mode U - LoRa 436.900 MHz

1 transmitter · refreshed weekly from db.satnogs.org